Regional Weather Roundup
Issued by NWS

Home | Current Version | Previous Version | Graphics & Text | Print | Product List | Glossary On
Versions: 1 2 3 4 5 6 7 8 9 10 11 12 13 14 15 16 17 18 19 20 21 22 23 24 25 26 27 28 29 30 31 32 33 34 35 36 37 38 39 40 41 42 43 44 45 46 47 48 49 50
000
ASUS43 KOAX 241310
RWRNE

WEATHER ROUNDUP FOR NEBRASKA
NATIONAL WEATHER SERVICE OMAHA NE
700 AM CST FRI NOV 24 2017

NOTES: SATELLITE DATA IS BEING USED TO AUGMENT CLOUD COVER ABOVE
       12000 FEET.
       "FAIR" INDICATES FEW OR NO CLOUDS BELOW 12,000 FEET WITH NO
       SIGNIFICANT WEATHER AND/OR OBSTRUCTIONS TO VISIBILITY.


NEZ001>004-019>022-054>056-241400-
NEBRASKA PANHANDLE

CITY           SKY/WX    TMP DP  RH WIND       PRES   REMARKS
SCOTTSBLUFF    CLOUDY    50  33  52 W8        29.71S
ALLIANCE       CLOUDY    44  34  67 SW7       29.67S
CHADRON        CLEAR     50  35  56 VRB5      29.63R
GORDON         FAIR      56  37  47 W13       29.62R
KIMBALL        CLOUDY    55  29  37 W18       29.78S
SIDNEY         CLOUDY    54  31  41 W15       29.75F
$$

NEZ057>060-069>072-079>082-241400-
SOUTHWEST NEBRASKA

CITY           SKY/WX    TMP DP  RH WIND       PRES   REMARKS
NORTH PLATTE   CLOUDY    39  33  79 NW8       29.66S WCI  33
IMPERIAL       CLOUDY    47  30  51 W9        29.73S
LEXINGTON      CLOUDY    35  31  86 N5        29.64S WCI  31
MCCOOK         CLOUDY    46  35  65 W12       29.70R
OGALLALA       CLOUDY    40  32  74 CALM      29.70F
$$

NEZ005>010-023>029-035>040-094-241400-
NORTH CENTRAL NEBRASKA

CITY           SKY/WX    TMP DP  RH WIND       PRES   REMARKS
VALENTINE      CLEAR     53  38  56 W16       29.54S
AINSWORTH      CLEAR     47  38  71 W9        29.54S
BROKEN BOW     CLEAR     47  36  65 W9        29.59F
O`NEILL        CLEAR     49  40  72 W10       29.50S
ORD            CLEAR     49  38  65 W6        29.56S
THEDFORD       CLEAR     56  38  50 W14       29.60F
$$

NEZ041-046>049-061>064-073>077-083>087-241400-
SOUTH CENTRAL NEBRASKA

CITY           SKY/WX    TMP DP  RH WIND       PRES   REMARKS
GRAND ISLAND   CLEAR     47  37  68 W13       29.59S
AURORA         CLEAR     44  36  71 SW10      29.58S
HASTINGS       CLEAR     47  35  63 W12       29.61F
HEBRON         CLEAR     48  39  70 CALM      29.64R
HOLDREGE       CLEAR     49  36  59 W12       29.64F
KEARNEY        CLEAR     48  34  58 W12       29.62F
YORK           CLEAR     46  37  71 W12       29.58S
$$

NEZ011>018-030>034-042>045-241400-
NORTHEAST NEBRASKA

CITY           SKY/WX    TMP DP  RH WIND       PRES   REMARKS
NORFOLK        PTCLDY    42  37  82 SW6       29.49F
ALBION         CLEAR     50  39  66 N5        29.53S
BLAIR          CLEAR     51  41  69 SW14G20   29.52F
COLUMBUS       CLEAR     48  39  71 SW13      29.54F
FREMONT        CLEAR     50  39  67 SW8       29.52F
TEKAMAH        CLEAR     43  36  76 S9        29.51F
WAYNE          CLEAR     41  38  91 CALM      29.47F
$$

NEZ050>053-065>068-078-088>093-241400-
SOUTHEAST NEBRASKA

CITY           SKY/WX    TMP DP  RH WIND       PRES   REMARKS
LINCOLN        CLEAR     48  39  71 VRB3      29.58F
OMAHA EPPLEY   CLEAR     44  37  76 SE10      29.54F
BEATRICE       CLEAR     48  39  70 S8        29.61S
FALLS CITY     CLEAR     50  36  58 S18       29.62F
NEBRASKA CITY  CLEAR     51  39  64 SW16      29.58S
PLATTSMOUTH    CLEAR     51  40  65 S13       29.56S
$$

NEZ044-045-051>053-067-241400-
OMAHA AREA

CITY           SKY/WX    TMP DP  RH WIND       PRES   REMARKS
OMAHA EPPLEY   CLEAR     44  37  76 SE10      29.54F
BLAIR          CLEAR     51  41  69 SW14G20   29.52F
FREMONT        CLEAR     50  39  67 SW8       29.52F
MILLARD        CLEAR     54  41  62 SW6       29.54F
OFFUTT AFB     CLEAR     44  37  75 S5        29.54F
PLATTSMOUTH    CLEAR     51  40  65 S13       29.56S
WAHOO          FAIR      51  39  63 SW13      29.53F
$$




USA.gov is the U.S. government's official web portal to all federal, state and local government web resources and services.